Allentown, PA

7:13 PM EDT on May 22, 2017 (GMT -0400)
Lehigh Valley International

Weather History for KABE - September, 2012

Change the Weather History Date:

Tuesday, September 25, 2012

  Actual Average Record
Temperature  
Mean Temperature 56 °F 60 °F  
Max Temperature 72 °F 71 °F 92 °F (1970)
Min Temperature 39 °F 49 °F 33 °F (1963)
Degree Days  
Heating Degree Days 9 6  
Month to date heating degree days 62 70  
Since 1 July heating degree days 63 81  
Cooling Degree Days 0 1  
Month to date cooling degree days 87 67  
Year to date cooling degree days 1038 746  
Growing Degree Days 6 (Base 50)    
Moisture  
Dew Point 45 °F    
Average Humidity 66    
Maximum Humidity 96    
Minimum Humidity 35    
Precipitation  
Precipitation T in 0.17 in 1.48 in (1991)
Month to date precipitation 4.09 3.74  
Year to date precipitation 29.91 33.51  
Snow  
Snow 0.00 in 0.00 in 0.00 in (2002)
Month to date snowfall 0.0 0.0  
Since 1 July snowfall 0.0 0.0  
Since 1 September snowfall 0.0 0.0  
Snow Depth 0.00 in    
Sea Level Pressure  
Sea Level Pressure 30.15 in    
Wind  
Wind Speed 5 mph (SW)    
Max Wind Speed 15 mph    
Max Gust Speed 20 mph    
Visibility 10 miles    
Events      
T = Trace of Precipitation, MM = Missing Value Source: NWS Daily Summary

Daily Weather History Graph

Daily Weather History Graph

Search for Another Location

Airport or City:

Trip Planner

Search our weather history database for the weather conditions in past years. The results will help you decide how hot, cold, wet, or windy it might be!

Date:

Astronomy

Sep. 25, 2012 Rise Set
Actual Time 6:52 AM EDT 6:53 PM EDT
Civil Twilight 6:25 AM EDT 7:20 PM EDT
Nautical Twilight 5:53 AM EDT 7:52 PM EDT
Astronomical Twilight 5:21 AM EDT 8:24 PM EDT
Moon 4:17 PM EDT (9/25) 2:10 AM EDT (9/25)
Length of Visible Light 12h 54m
Length of Day
12h 00m
Waxing Gibbous, 80% of the Moon is Illuminated
Sep 25
Waxing Gibbous
Sep 29
Full
Oct 8
Last Quarter
Oct 15
New
Oct 21
First Quarter

Hourly Weather History & Observations

Time (EDT) Temp. Windchill Dew Point Humidity Pressure Visibility Wind Dir Wind Speed Gust Speed Precip Events Conditions
12:51 AM 43.0 °F 41.3 °F 39.9 °F 89% 30.15 in 10.0 mi North 3.5 mph - N/A   Clear
1:51 AM 43.0 °F - 39.9 °F 89% 30.16 in 10.0 mi Calm Calm - N/A   Clear
2:51 AM 42.1 °F - 39.0 °F 89% 30.16 in 10.0 mi Calm Calm - N/A   Clear
3:51 AM 42.1 °F - 39.0 °F 89% 30.15 in 10.0 mi Calm Calm - N/A   Clear
4:51 AM 41.0 °F - 37.9 °F 89% 30.16 in 10.0 mi Calm Calm - N/A   Clear
5:51 AM 39.9 °F 37.8 °F 37.9 °F 93% 30.17 in 9.0 mi NNW 3.5 mph - N/A   Clear
6:51 AM 39.0 °F - 36.0 °F 89% 30.18 in 10.0 mi Calm Calm - N/A   Clear
7:51 AM 42.1 °F 40.2 °F 41.0 °F 96% 30.20 in 10.0 mi NNW 3.5 mph - N/A   Clear
8:51 AM 48.9 °F - 45.0 °F 86% 30.21 in 10.0 mi Calm Calm - N/A   Clear
9:51 AM 54.0 °F - 45.0 °F 72% 30.21 in 10.0 mi Calm Calm - N/A   Clear
10:51 AM 61.0 °F - 46.9 °F 60% 30.19 in 10.0 mi West 5.8 mph - N/A   Clear
11:51 AM 66.0 °F - 46.9 °F 50% 30.17 in 10.0 mi Variable 3.5 mph - N/A   Clear
12:51 PM 69.1 °F - 45.0 °F 42% 30.17 in 10.0 mi WSW 9.2 mph - N/A   Clear
1:51 PM 70.0 °F - 46.0 °F 42% 30.15 in 10.0 mi WSW 13.8 mph - N/A   Clear
2:51 PM 72.0 °F - 43.0 °F 35% 30.15 in 10.0 mi SW 5.8 mph 18.4 mph N/A   Clear
3:51 PM 72.0 °F - 44.1 °F 37% 30.13 in 10.0 mi SSW 13.8 mph - N/A   Clear
4:51 PM 71.1 °F - 46.0 °F 41% 30.13 in 10.0 mi SSW 10.4 mph - N/A   Clear
5:51 PM 70.0 °F - 48.0 °F 46% 30.12 in 10.0 mi South 9.2 mph - N/A   Clear
6:51 PM 68.0 °F - 48.9 °F 50% 30.12 in 10.0 mi South 8.1 mph - N/A   Mostly Cloudy
7:51 PM 66.9 °F - 50.0 °F 54% 30.12 in 10.0 mi South 8.1 mph - N/A   Mostly Cloudy
8:51 PM 66.0 °F - 51.1 °F 59% 30.12 in 10.0 mi SSW 5.8 mph - N/A   Partly Cloudy
9:51 PM 64.0 °F - 51.1 °F 63% 30.12 in 10.0 mi South 4.6 mph - N/A   Clear
10:51 PM 64.0 °F - 52.0 °F 65% 30.13 in 10.0 mi SSW 6.9 mph - N/A   Mostly Cloudy
11:51 PM 64.9 °F - 52.0 °F 63% 30.12 in 10.0 mi South 6.9 mph - N/A   Overcast